This demonstration page uses our WeatherBlox Daily Observations layout. Learn more.

Hourly Observations for October 5, 2019

Temp ( °F °C ) Dew Point ( °F °C ) Humidity (%) Winds ( mph kmh ) Pressure ( in mb ) Visibility ( mi km ) Precip ( " mm )
12:54 am 00:54 Cloudy with Rain 54 12.2 50 10 87 87 SSE 18 30 29.97 1015 5 8.04672 0.04 1.016
1:05 am 01:05 Cloudy with Rain 54 12.2 51 10.6 90 90 SSE 20 31 29.97 1015 5 8.04672 0.04 1.016
1:54 am 01:54 Mostly Cloudy 55 12.8 52 11.1 90 90 SSE 18 30 29.94 1014 10 16.09344 0.12 3.048
2:07 am 02:07 Cloudy 55 12.8 52 11.1 90 90 SSE 18 30 29.97 1015 10 16.09344 0.01 0.254
2:30 am 02:30 Cloudy with Light Rain 55 12.8 52 11.1 90 90 SSE 16 26 29.94 1014 8 12.874752 0.01 0.254
2:52 am 02:52 Cloudy with Light Rain 55 13 52 11 88 88 SSE 15 24 29.94 1014 10 16.09344 0.02 0.508
2:54 am 02:54 Cloudy with Light Rain 56 13.3 52 11.1 87 87 SSE 15 24 29.94 1014 10 16.09344 0.02 0.508
3:54 am 03:54 Cloudy 56 13.3 53 11.7 90 90 S 17 28 29.88 1012 10 16.09344 0.04 1.016
4:08 am 04:08 Cloudy with Nearby Thunderstorms 57 13.9 53 11.7 87 87 S 16 26 29.88 1012 10 16.09344 0.001 0.001
4:17 am 04:17 Cloudy with Heavy Thunderstorms 57 13.9 53 11.7 87 87 SSE 12 19 29.88 1012 2.5 4.02336 0.01 0.254
4:31 am 04:31 Cloudy with Light Thunderstorms 57 13.9 54 12.2 90 90 SSE 16 26 29.88 1012 4 6.437376 0.23 5.842
4:41 am 04:41 Cloudy with Light Thunderstorms 57 13.9 54 12.2 90 90 S 13 20 29.85 1011 10 16.09344 0.24 6.096
4:51 am 04:51 Cloudy with Nearby Thunderstorms 57 14 55 13 94 94 SSW 13 20 29.88 1012 5 8.04672 0.24 6.096
4:52 am 04:52 Cloudy with Light Thunderstorms 57 14 55 13 94 94 SSW 10 17 29.88 1012 3 4.828032 0.24 6.096
4:54 am 04:54 Cloudy with Heavy Thunderstorms 57 13.9 55 12.8 93 93 S 10 17 29.85 1011 2.5 4.02336 0.24 6.096
5:02 am 05:02 Cloudy with Light Thunderstorms 57 13.9 55 12.8 93 93 S 13 20 29.85 1011 3 4.828032 0.12 3.048
5:19 am 05:19 Cloudy with Nearby Thunderstorms 58 14.4 56 13.3 93 93 SSW 15 24 29.85 1011 10 16.09344 0.12 3.048
5:33 am 05:33 Cloudy 60 15.6 56 13.3 86 86 S 20 31 29.83 1010 10 16.09344 0.12 3.048
5:54 am 05:54 Cloudy 60 15.6 57 13.9 90 90 SSW 16 26 29.83 1010 10 16.09344 0.12 3.048
6:32 am 06:32 Cloudy 60 15.6 57 13.9 90 90 SSW 18 30 29.8 1009 10 16.09344 0 0
6:54 am 06:54 Cloudy 60 15.6 58 14.4 93 93 SSW 15 24 29.8 1009 10 16.09344 0.001 0.001
7:54 am 07:54 Cloudy 62 16.7 59 15 90 90 SW 12 19 29.8 1009 9 14.484096 0.01 0.254
8:47 am 08:47 Cloudy 64 17.8 61 16.1 90 90 WSW 9 15 29.83 1010 8 12.874752 0 0
8:54 am 08:54 Cloudy 64 17.8 61 16.1 90 90 WSW 8 13 29.83 1010 8 12.874752 0 0
9:04 am 09:04 Cloudy 64 17.8 61 16.1 90 90 WSW 8 13 29.83 1010 8 12.874752 0 0
9:31 am 09:31 Mostly Cloudy 66 18.9 60 15.6 81 81 W 12 19 29.83 1010 10 16.09344 0 0
9:54 am 09:54 Mostly Cloudy 65 18.3 55 12.8 70 70 WNW 15 24 29.85 1011 10 16.09344 0 0
10:54 am 10:54 Sunny 66 18.9 46 7.8 49 49 NW 24 39 29.88 1012 10 16.09344 0 0
11:54 am 11:54 Sunny 66 18.9 46 7.8 49 49 NW 18 30 29.91 1013 10 16.09344 0 0
12:54 pm 12:54 Sunny 67 19.4 45 7.2 45 45 WNW 20 31 29.91 1013 10 16.09344 0 0
1:54 pm 13:54 Sunny 67 19.4 44 6.7 44 44 WNW 23 37 29.94 1014 10 16.09344 0 0
2:54 pm 14:54 Sunny 67 19.4 43 6.1 42 42 WNW 22 35 29.94 1014 10 16.09344 0 0
3:54 pm 15:54 Mostly Sunny 67 19.4 43 6.1 42 42 NW 13 20 29.94 1014 10 16.09344 0 0
4:54 pm 16:54 Sunny 69 20.6 39 3.9 33 33 WNW 15 24 29.94 1014 10 16.09344 0 0
5:54 pm 17:54 Sunny 68 20 37 2.8 32 32 NW 13 20 29.94 1014 10 16.09344 0 0
6:54 pm 18:54 Sunny 65 18.3 38 3.3 37 37 NW 6 9 29.94 1014 10 16.09344 0 0
7:54 pm 19:54 Clear 60 15.6 39 3.9 46 46 WNW 5 7 29.97 1015 10 16.09344 0 0
8:54 pm 20:54 Clear 56 13.3 40 4.4 55 55 W 3 6 30.03 1017 10 16.09344 0 0
9:54 pm 21:54 Clear 47 8.3 40 4.4 77 77 N 5 7 30.03 1017 10 16.09344 0 0
10:54 pm 22:54 Clear 50 10 42 5.6 74 74 SSE 3 6 30.03 1017 10 16.09344 0 0
11:54 pm 23:54 Clear 42 5.6 39 3.9 89 89 Calm 30.06 1018 10 16.09344 0 0

Powered by AerisWeather